| time (UTC) | temp F | wind direction | speed knots | gust knots | rain 1hr in | rain 24hr in | rain mn in | humidity % | barometer mb |
| 20260906183039 | 78 | 43 | 3.5 | 7.8 | 0.00 | 0.00 | 0.00 | 56 | 1015.1 |
| 20260906181518 | 77 | 96 | 0.9 | 3.5 | 0.00 | 0.00 | 0.00 | 59 | 1015.1 |
| 20260906180019 | 76 | 86 | 0.0 | 2.6 | 0.00 | 0.00 | 0.00 | 63 | 1015.3 |
| 20260906174513 | 74 | 229 | 0.9 | 3.5 | 0.00 | 0.00 | 0.00 | 67 | 1015.4 |
| 20260906173013 | 73 | 42 | 0.0 | 1.7 | 0.00 | 0.00 | 0.00 | 70 | 1015.5 |
| 20260906171518 | 73 | 178 | 0.9 | 5.2 | 0.00 | 0.00 | 0.00 | 70 | 1015.5 |
| 20260906170013 | 74 | 341 | 0.0 | 3.5 | 0.00 | 0.00 | 0.00 | 66 | 1015.4 |
| 20260906164513 | 76 | 300 | 0.0 | 4.3 | 0.00 | 0.00 | 0.00 | 66 | 1015.5 |
| 20260906163012 | 75 | 15 | 0.0 | 1.7 | 0.00 | 0.00 | 0.00 | 69 | 1015.5 |
| 20260906161510 | 76 | 319 | 0.0 | 2.6 | 0.00 | 0.00 | 0.00 | 67 | 1015.4 |
| 20260906160014 | 76 | 76 | 0.0 | 2.6 | 0.00 | 0.00 | 0.00 | 68 | 1015.5 |
| 20260906154506 | 74 | 92 | 0.0 | 1.7 | 0.00 | 0.00 | 0.00 | 72 | 1015.6 |
| 20260906153004 | 73 | 44 | 0.9 | 1.7 | 0.00 | 0.00 | 0.00 | 72 | 1015.7 |
| 20260906151505 | 73 | 38 | 0.9 | 2.6 | 0.00 | 0.00 | 0.00 | 72 | 1015.5 |
| 20260906144606 | 71 | 121 | 0.0 | 1.7 | 0.00 | 0.00 | 0.00 | 77 | 1015.6 |
| 20260906143057 | 72 | 22 | 0.0 | 1.7 | 0.00 | 0.00 | 0.00 | 76 | 1015.5 |
| 20260906141556 | 71 | 49 | 0.0 | 2.6 | 0.00 | 0.00 | 0.00 | 77 | 1015.4 |
| 20260906140055 | 72 | 44 | 0.0 | 1.7 | 0.00 | 0.00 | 0.00 | 76 | 1015.3 |
| 20260906134556 | 71 | 35 | 0.0 | 1.7 | 0.00 | 0.00 | 0.00 | 78 | 1015.2 |
| 20260906133047 | 70 | 49 | 0.0 | 0.9 | 0.00 | 0.00 | 0.00 | 82 | 1015.1 |
| 20260906131543 | 68 | 75 | 0.0 | 1.7 | 0.00 | 0.00 | 0.00 | 84 | 1015.0 |
| 20260906130040 | 67 | 304 | 0.0 | 0.9 | 0.00 | 0.00 | 0.00 | 87 | 1015.1 |
| 20260906124536 | 65 | 12 | 0.0 | 1.7 | 0.00 | 0.00 | 0.00 | 88 | 1015.1 |
| 20260906123038 | 65 | 248 | 0.0 | 2.6 | 0.00 | 0.00 | 0.00 | 88 | 1014.8 |
| 20260906121540 | 64 | 248 | 0.9 | 4.3 | 0.00 | 0.00 | 0.00 | 89 | 1014.8 |
| 20260906120130 | 64 | 224 | 0.0 | 2.6 | 0.00 | 0.00 | 0.00 | 90 | 1014.7 |
| 20260906114533 | 63 | 246 | 0.0 | 1.7 | 0.00 | 0.00 | 0.00 | 91 | 1014.5 |
| 20260906113041 | 63 | 319 | 0.0 | 1.7 | 0.00 | 0.00 | 0.00 | 92 | 1014.4 |
| 20260906111524 | 62 | 218 | 0.0 | 0.9 | 0.00 | 0.00 | 0.00 | 92 | 1014.1 |
| 20260906110022 | 62 | 40 | 0.0 | 1.7 | 0.00 | 0.00 | 0.00 | 92 | 1014.1 |
| 20260906104527 | 62 | 37 | 0.0 | 1.7 | 0.00 | 0.00 | 0.00 | 92 | 1013.9 |
| 20260906103018 | 62 | 38 | 0.0 | 0.9 | 0.00 | 0.00 | 0.00 | 92 | 1013.6 |
| 20260906101517 | 62 | 346 | 0.0 | 0.9 | 0.00 | 0.00 | 0.00 | 92 | 1013.5 |
| 20260906100018 | 61 | 215 | 0.0 | 2.6 | 0.00 | 0.00 | 0.00 | 93 | 1013.2 |
| 20260906094517 | 61 | 208 | 0.0 | 0.0 | 0.00 | 0.00 | 0.00 | 92 | 1013.2 |
| 20260906093012 | 61 | 207 | 0.0 | 1.7 | 0.00 | 0.00 | 0.00 | 92 | 1013.1 |
| 20260906091523 | 62 | 238 | 0.0 | 0.9 | 0.00 | 0.00 | 0.00 | 92 | 1012.7 |
| 20260906090010 | 62 | 355 | 0.0 | 1.7 | 0.00 | 0.00 | 0.00 | 91 | 1012.5 |
| 20260906084510 | 62 | 31 | 0.0 | 1.7 | 0.00 | 0.00 | 0.00 | 93 | 1012.4 |
| 20260906083013 | 61 | 66 | 0.0 | 0.9 | 0.00 | 0.00 | 0.00 | 93 | 1012.5 |
| 20260906081512 | 61 | 66 | 0.0 | 0.9 | 0.00 | 0.00 | 0.00 | 93 | 1012.2 |
| 20260906080007 | 62 | 74 | 0.0 | 0.9 | 0.00 | 0.00 | 0.00 | 93 | 1012.2 |
| 20260906074512 | 61 | 190 | 0.0 | 0.0 | 0.00 | 0.00 | 0.00 | 94 | 1012.2 |
| 20260906073005 | 61 | 205 | 0.0 | 0.0 | 0.00 | 0.00 | 0.00 | 93 | 1012.2 |
| 20260906071506 | 61 | 205 | 0.0 | 0.9 | 0.00 | 0.00 | 0.00 | 92 | 1012.3 |
| 20260906070003 | 62 | 250 | 0.0 | 0.0 | 0.00 | 0.00 | 0.00 | 91 | 1012.4 |
| 20260906064505 | 62 | 250 | 0.0 | 0.0 | 0.00 | 0.00 | 0.00 | 91 | 1012.4 |
| 20260906063002 | 62 | 11 | 0.0 | 0.9 | 0.00 | 0.00 | 0.00 | 91 | 1012.4 |
| 20260906061502 | 63 | 324 | 0.0 | 0.9 | 0.00 | 0.00 | 0.00 | 90 | 1012.4 |
| 20260906054600 | 64 | 337 | 0.0 | 0.0 | 0.00 | 0.00 | 0.00 | 88 | 1012.6 |
| 20260906053057 | 64 | 121 | 0.0 | 0.9 | 0.00 | 0.00 | 0.00 | 87 | 1012.6 |
| 20260906051602 | 63 | 261 | 0.0 | 0.9 | 0.00 | 0.00 | 0.00 | 89 | 1012.7 |
| 20260906050055 | 63 | 278 | 0.0 | 0.0 | 0.00 | 0.00 | 0.00 | 90 | 1012.6 |
| 20260906044553 | 63 | 278 | 0.0 | 0.9 | 0.00 | 0.00 | 0.00 | 91 | 1012.6 |
| 20260906043049 | 62 | 260 | 0.0 | 0.9 | 0.00 | 0.00 | 0.00 | 93 | 1012.7 |
| 20260906041546 | 61 | 186 | 0.0 | 0.0 | 0.00 | 0.00 | 0.00 | 94 | 1012.8 |
| 20260906040047 | 61 | 186 | 0.0 | 0.0 | 0.00 | 0.00 | 0.00 | 94 | 1012.7 |
| 20260906034543 | 62 | 186 | 0.0 | 0.0 | 0.00 | 0.05 | 0.00 | 94 | 1012.6 |
| 20260906033047 | 62 | 186 | 0.0 | 0.0 | 0.00 | 0.05 | 0.00 | 94 | 1012.5 |
| 20260906031554 | 62 | 186 | 0.0 | 0.0 | 0.00 | 0.05 | 0.00 | 93 | 1012.6 |
| 20260906030040 | 62 | 186 | 0.0 | 0.0 | 0.00 | 0.05 | 0.00 | 94 | 1012.5 |
| 20260906024539 | 62 | 186 | 0.0 | 0.0 | 0.00 | 0.05 | 0.00 | 94 | 1012.2 |
| 20260906023038 | 62 | 186 | 0.0 | 0.0 | 0.00 | 0.05 | 0.00 | 93 | 1012.3 |
| 20260906021536 | 62 | 186 | 0.0 | 0.0 | 0.00 | 0.05 | 0.00 | 93 | 1012.2 |
| 20260906020034 | 63 | 186 | 0.0 | 0.0 | 0.00 | 0.05 | 0.00 | 92 | 1012.2 |
| 20260906014536 | 63 | 186 | 0.0 | 0.0 | 0.00 | 0.05 | 0.00 | 91 | 1012.1 |
| 20260906013029 | 64 | 186 | 0.0 | 0.0 | 0.00 | 0.05 | 0.00 | 91 | 1012.0 |
| 20260906011535 | 64 | 186 | 0.0 | 0.0 | 0.00 | 0.05 | 0.00 | 91 | 1011.9 |
| 20260906010031 | 64 | 186 | 0.0 | 0.0 | 0.00 | 0.05 | 0.00 | 91 | 1011.8 |
| 20260906004525 | 65 | 186 | 0.0 | 0.0 | 0.00 | 0.05 | 0.00 | 90 | 1011.5 |
| 20260906003024 | 65 | 186 | 0.0 | 0.0 | 0.00 | 0.05 | 0.00 | 89 | 1011.2 |
| 20260906001520 | 66 | 186 | 0.0 | 0.0 | 0.00 | 0.05 | 0.00 | 87 | 1011.0 |
| 20260906000018 | 67 | 186 | 0.0 | 0.0 | 0.00 | 0.05 | 0.00 | 85 | 1010.9 |
| 20260905234517 | 69 | 186 | 0.0 | 0.0 | 0.00 | 0.05 | 0.00 | 82 | 1010.7 |
| 20260905233017 | 71 | 186 | 0.0 | 0.0 | 0.00 | 0.05 | 0.00 | 77 | 1010.6 |
| 20260905231517 | 75 | 186 | 0.0 | 1.7 | 0.00 | 0.05 | 0.00 | 68 | 1010.5 |
| 20260905230016 | 79 | 309 | 0.0 | 0.0 | 0.00 | 0.05 | 0.00 | 62 | 1010.5 |
| 20260905224525 | 80 | 309 | 0.0 | 1.7 | 0.00 | 0.05 | 0.00 | 56 | 1010.3 |
| 20260905223015 | 80 | 36 | 0.0 | 0.9 | 0.00 | 0.05 | 0.00 | 55 | 1010.4 |
| 20260905221517 | 80 | 267 | 0.0 | 1.7 | 0.00 | 0.05 | 0.00 | 55 | 1010.4 |
| 20260905220015 | 80 | 22 | 0.0 | 2.6 | 0.00 | 0.05 | 0.00 | 53 | 1010.2 |
| 20260905214514 | 80 | 340 | 0.0 | 5.2 | 0.00 | 0.05 | 0.00 | 53 | 1010.2 |
| 20260905213013 | 80 | 57 | 0.0 | 0.9 | 0.00 | 0.05 | 0.00 | 52 | 1010.2 |
| 20260905211512 | 82 | 78 | 0.0 | 1.7 | 0.00 | 0.05 | 0.00 | 53 | 1010.1 |
| 20260905210011 | 81 | 38 | 0.0 | 4.3 | 0.00 | 0.05 | 0.00 | 52 | 1010.0 |
| 20260905204514 | 81 | 248 | 0.0 | 3.5 | 0.00 | 0.05 | 0.00 | 51 | 1010.0 |
| 20260905203007 | 80 | 263 | 0.9 | 3.5 | 0.00 | 0.05 | 0.00 | 50 | 1010.1 |
| 20260905201507 | 80 | 298 | 0.0 | 4.3 | 0.00 | 0.05 | 0.00 | 51 | 1010.3 |
| 20260905200006 | 80 | 71 | 1.7 | 5.2 | 0.00 | 0.05 | 0.00 | 52 | 1010.4 |
| 20260905194505 | 80 | 51 | 0.0 | 3.5 | 0.00 | 0.05 | 0.00 | 54 | 1010.3 |
| 20260905193006 | 79 | 278 | 0.9 | 3.5 | 0.00 | 0.05 | 0.00 | 54 | 1010.4 |
| 20260905191504 | 79 | 245 | 0.9 | 4.3 | 0.00 | 0.05 | 0.00 | 56 | 1010.5 |
| 20260905190003 | 78 | 28 | 0.9 | 4.3 | 0.00 | 0.05 | 0.00 | 58 | 1010.5 |
| 20260905184503 | 80 | 42 | 0.9 | 2.6 | 0.00 | 0.05 | 0.00 | 55 | 1010.5 |